When you browse on this site, cookies collect data to enhance your experience and personalize the content and advertising you see.
Visit our Privacy Policy to learn more. By continuing to use the site, you agree to this use of cookies and data.
  • En España
  • Lista de países
  • Para 7 días
  • Temperatura del agua
  • Mapa Satelital
  • El tiempo en el mapa
  • Informadores
  • user-avatar
    Iniciar sesión

    Tiempo cada hora Perugia

    Hoy, 25 Junio, Martes

    Tiempo Temperatura Precipitaciones Viento Presión Humedad
    00:00 +19°C° 0 mm 2 mps 731 mmHg 76%
    01:00 +19°C° 0 mm 1 mps 732 mmHg 77%
    02:00 +19°C° 0 mm 1 mps 731 mmHg 77%
    03:00 +19°C° 0 mm 1 mps 731 mmHg 76%
    04:00 +19°C° 0 mm 1 mps 731 mmHg 75%
    05:00 +20°C° 0 mm 1 mps 731 mmHg 73%
    06:00 +21°C° 0 mm 2 mps 731 mmHg 71%
    07:00 +24°C° 0 mm 2 mps 732 mmHg 66%
    08:00 +26°C° 0 mm 3 mps 732 mmHg 62%
    09:00 +27°C° 0 mm 3 mps 733 mmHg 57%
    10:00 +29°C° 0 mm 4 mps 733 mmHg 53%
    11:00 +30°C° 0 mm 4 mps 733 mmHg 51%
    12:00 +32°C° 0 mm 4 mps 733 mmHg 49%
    13:00 +32°C° 0 mm 4 mps 733 mmHg 46%
    14:00 +32°C° 0 mm 4 mps 733 mmHg 47%
    15:00 +32°C° 0 mm 4 mps 733 mmHg 48%
    16:00 +32°C° 0 mm 4 mps 733 mmHg 48%
    17:00 +29°C° 0 mm 4 mps 733 mmHg 54%
    18:00 +28°C° 0 mm 3 mps 733 mmHg 60%
    19:00 +26°C° 0 mm 3 mps 733 mmHg 66%
    20:00 +25°C° 0 mm 2 mps 733 mmHg 70%
    21:00 +23°C° 0 mm 2 mps 733 mmHg 74%
    22:00 +20°C° 0 mm 2 mps 733 mmHg 78%
    23:00 +20°C° 0 mm 2 mps 733 mmHg 77%

    Mañana, 26 Junio, Miércoles

    Tiempo Temperatura Precipitaciones Viento Presión Humedad
    00:00 +19°C° 0 mm 2 mps 733 mmHg 77%
    01:00 +19°C° 0 mm 2 mps 733 mmHg 76%
    02:00 +20°C° 0 mm 1 mps 733 mmHg 76%
    03:00 +20°C° 0 mm 1 mps 733 mmHg 76%
    04:00 +20°C° 0 mm 1 mps 732 mmHg 76%
    05:00 +21°C° 0 mm 1 mps 733 mmHg 74%
    06:00 +23°C° 0 mm 1 mps 733 mmHg 72%
    07:00 +24°C° 0 mm 2 mps 733 mmHg 70%
    08:00 +26°C° 0 mm 2 mps 734 mmHg 64%
    09:00 +28°C° 0 mm 3 mps 734 mmHg 58%
    10:00 +30°C° 0 mm 3 mps 734 mmHg 53%
    11:00 +31°C° 0 mm 3 mps 734 mmHg 50%
    12:00 +33°C° 0 mm 4 mps 734 mmHg 48%
    13:00 +34°C° 0 mm 4 mps 734 mmHg 45%
    14:00 +34°C° 0 mm 4 mps 734 mmHg 46%
    15:00 +33°C° 0 mm 4 mps 734 mmHg 47%
    16:00 +33°C° 0 mm 4 mps 733 mmHg 48%
    17:00 +32°C° 0 mm 4 mps 733 mmHg 54%
    18:00 +29°C° 0 mm 3 mps 733 mmHg 61%
    19:00 +27°C° 0 mm 2 mps 733 mmHg 67%
    20:00 +26°C° 0 mm 2 mps 733 mmHg 72%
    21:00 +24°C° 0 mm 2 mps 732 mmHg 77%
    22:00 +21°C° 0 mm 2 mps 732 mmHg 81%
    23:00 +22°C° 0 mm 1 mps 732 mmHg 80%

    Pasado mañana, 27 Junio, Jueves

    Tiempo Temperatura Precipitaciones Viento Presión Humedad
    00:00 +21°C° 0 mm 1 mps 732 mmHg 80%
    01:00 +21°C° 0 mm 1 mps 732 mmHg 79%
    02:00 +20°C° 0 mm 1 mps 732 mmHg 78%
    03:00 +20°C° 0 mm 1 mps 732 mmHg 76%
    04:00 +20°C° 0 mm 1 mps 731 mmHg 75%
    05:00 +22°C° 0 mm 1 mps 731 mmHg 71%
    06:00 +23°C° 0 mm 1 mps 732 mmHg 67%
    07:00 +25°C° 0 mm 1 mps 732 mmHg 62%
    08:00 +27°C° 0 mm 1 mps 732 mmHg 57%
    09:00 +30°C° 0 mm 1 mps 732 mmHg 52%
    10:00 +32°C° 0 mm 2 mps 732 mmHg 46%
    11:00 +34°C° 0 mm 2 mps 732 mmHg 42%
    12:00 +35°C° 0 mm 2 mps 732 mmHg 38%
    13:00 +37°C° 0 mm 3 mps 732 mmHg 34%
    14:00 +37°C° 0 mm 3 mps 731 mmHg 35%
    15:00 +37°C° 0 mm 3 mps 731 mmHg 35%
    16:00 +37°C° 0 mm 3 mps 730 mmHg 35%
    17:00 +35°C° 0 mm 2 mps 730 mmHg 41%
    18:00 +32°C° 0 mm 1 mps 730 mmHg 48%
    19:00 +30°C° 0 mm 1 mps 729 mmHg 55%
    20:00 +28°C° 0 mm 1 mps 729 mmHg 58%
    21:00 +26°C° 0 mm 1 mps 729 mmHg 61%
    22:00 +25°C° 0 mm 1 mps 729 mmHg 64%
    23:00 +24°C° 0 mm 1 mps 728 mmHg 64%

    28 Junio, Viernes

    Tiempo Temperatura Precipitaciones Viento Presión Humedad
    00:00 +21°C° 0 mm 0 mps 728 mmHg 65%
    01:00 +21°C° 0 mm 0 mps 728 mmHg 65%
    02:00 +21°C° 0 mm 0 mps 728 mmHg 66%
    03:00 +20°C° 0 mm 0 mps 728 mmHg 66%
    04:00 +20°C° 0 mm 0 mps 727 mmHg 67%
    05:00 +21°C° 0 mm 0 mps 728 mmHg 64%
    06:00 +23°C° 0 mm 0 mps 728 mmHg 61%
    07:00 +27°C° 0 mm 1 mps 728 mmHg 59%
    08:00 +29°C° 0 mm 1 mps 728 mmHg 53%
    09:00 +31°C° 0 mm 1 mps 729 mmHg 47%
    10:00 +33°C° 0 mm 1 mps 729 mmHg 41%
    11:00 +35°C° 0 mm 2 mps 729 mmHg 40%
    12:00 +36°C° 0 mm 2 mps 729 mmHg 39%
    13:00 +36°C° 0 mm 2 mps 729 mmHg 38%
    14:00 +36°C° 0 mm 3 mps 729 mmHg 41%
    15:00 +36°C° 0 mm 3 mps 729 mmHg 44%
    16:00 +35°C° 0 mm 4 mps 728 mmHg 47%
    17:00 +33°C° 0 mm 3 mps 728 mmHg 54%
    18:00 +30°C° 0 mm 3 mps 728 mmHg 62%
    19:00 +29°C° 0 mm 2 mps 728 mmHg 69%
    20:00 +27°C° 0 mm 2 mps 728 mmHg 74%
    21:00 +25°C° 0 mm 2 mps 728 mmHg 79%
    22:00 +23°C° 0 mm 2 mps 728 mmHg 84%
    23:00 +21°C° 0 mm 2 mps 728 mmHg 82%

    29 Junio, Sábado

    Tiempo Temperatura Precipitaciones Viento Presión Humedad
    00:00 +21°C° 0 mm 2 mps 728 mmHg 81%
    01:00 +20°C° 0 mm 2 mps 729 mmHg 80%
    02:00 +20°C° 0 mm 2 mps 728 mmHg 74%
    03:00 +19°C° 0 mm 2 mps 728 mmHg 69%
    04:00 +19°C° 0 mm 2 mps 728 mmHg 63%
    05:00 +20°C° 0 mm 2 mps 729 mmHg 59%
    06:00 +21°C° 0 mm 2 mps 729 mmHg 56%
    07:00 +23°C° 0 mm 2 mps 729 mmHg 52%
    08:00 +25°C° 0 mm 3 mps 730 mmHg 47%
    09:00 +27°C° 0 mm 3 mps 730 mmHg 42%
    10:00 +29°C° 0 mm 3 mps 730 mmHg 37%
    11:00 +30°C° 0 mm 4 mps 731 mmHg 38%
    12:00 +32°C° 0 mm 5 mps 731 mmHg 39%
    13:00 +32°C° 0 mm 5 mps 731 mmHg 40%
    14:00 +32°C° 0 mm 5 mps 730 mmHg 42%
    15:00 +32°C° 0 mm 5 mps 730 mmHg 44%
    16:00 +30°C° 0 mm 5 mps 730 mmHg 46%
    17:00 +29°C° 0 mm 4 mps 730 mmHg 51%
    18:00 +27°C° 0 mm 4 mps 730 mmHg 57%
    19:00 +26°C° 0 mm 3 mps 730 mmHg 63%
    20:00 +24°C° 0 mm 3 mps 730 mmHg 67%
    21:00 +21°C° 0 mm 2 mps 730 mmHg 71%
    22:00 +18°C° 0 mm 2 mps 730 mmHg 75%
    23:00 +18°C° 0 mm 2 mps 730 mmHg 75%

    30 Junio, Domingo

    Tiempo Temperatura Precipitaciones Viento Presión Humedad
    00:00 +17°C° 0 mm 2 mps 730 mmHg 76%
    01:00 +16°C° 0 mm 2 mps 730 mmHg 77%
    02:00 +16°C° 0 mm 2 mps 730 mmHg 78%
    03:00 +15°C° 0 mm 1 mps 729 mmHg 80%
    04:00 +15°C° 0 mm 1 mps 729 mmHg 81%
    05:00 +18°C° 0 mm 1 mps 730 mmHg 76%
    06:00 +20°C° 0 mm 1 mps 730 mmHg 71%
    07:00 +22°C° 0 mm 1 mps 730 mmHg 66%
    08:00 +24°C° 0 mm 1 mps 731 mmHg 57%
    09:00 +26°C° 0 mm 1 mps 731 mmHg 48%
    10:00 +29°C° 0 mm 2 mps 732 mmHg 39%
    11:00 +30°C° 0 mm 2 mps 732 mmHg 36%
    12:00 +31°C° 0 mm 2 mps 732 mmHg 33%
    13:00 +32°C° 0 mm 2 mps 732 mmHg 30%
    14:00 +32°C° 0 mm 2 mps 732 mmHg 30%
    15:00 +34°C° 0 mm 2 mps 731 mmHg 30%
    16:00 +34°C° 0 mm 2 mps 731 mmHg 31%
    17:00 +31°C° 0 mm 1 mps 731 mmHg 38%
    18:00 +29°C° 0 mm 1 mps 731 mmHg 46%
    19:00 +27°C° 0 mm 1 mps 731 mmHg 53%
    20:00 +25°C° 0 mm 1 mps 731 mmHg 60%
    21:00 +23°C° 0 mm 1 mps 731 mmHg 66%
    22:00 +21°C° 0 mm 1 mps 731 mmHg 73%
    23:00 +19°C° 0 mm 0 mps 731 mmHg 76%
    Mostrar más